sat.trackr.live / text

‹ back to catalog

ASTRA 1L

NORAD 31306 · 2007-016A

PAYLOAD ACTIVE UNKNOWN

§ Identity

Operator
Country
SES
Launch date
2007-05-04
Launch site
FRGUI
Launch vehicle
Mass (kg)
RCS (m²)
18.34

Purposes: comms

External: N2YO · Heavens-Above · Gunter

§ Orbital elements

Epoch: 2026-09-19T15:08:39.329664Z

Period
1,436.08 min
Inclination
1.5583°
Eccentricity
0.0004862
Mean motion
1.00272628 rev/d
Perigee alt
35,765.9 km
Apogee alt
35,806.9 km
Semi-major
42,164.5 km
B*
0.0000e+0
RAAN
80.6146°
Arg perigee
96.4605°
Mean anomaly
24.1473°
Rev number
4,593

§ Raw data

ASTRA 1L1 31306U 07016A   26262.63101076 -.00000188  00000+0  00000+0 0  99952 31306   1.5583  80.6146 0004862  96.4605  24.1473  1.00272628 45932

JSON: /api/v1/satellites/31306 · /tle

For live sub-satellite position, see the globe view (requires WebGL).

§ Visibility from observer

Set your observer location to see the next 7 days of passes ≥ 10°. The values pass through the URL so the page stays shareable.

No JS? Fill the form by hand. The geolocation button needs JavaScript.